x

8454049 - Quonset Point, Ri (qptr1) Weather Station

8:30 - Tue 6th Dec 2016 All times are EST. -5 hours from GMT.

  • Wind
    3mph
  • Sea Temp 46°f
  • Air Temp 38°f
  • Sea Pressure 1020.3mb
  • 8454049 - Quonset Point, Ri
  • 8454049 - Quonset Point, Ri

More Historic Weather Station data

Upgrade to MSW Pro to gain access to the past 30 days of data for over 8000 Wavebouys and Weather Stations around the globe.

Join Pro

Comparision Forecast

View Surf forecast
   
mar. 12/06 8:30 3
mph
1020.3mb 46f 38f
8:24 3 5 mph 1020.3mb 46f 38f
8:18 5
mph
1020.3mb 46f 38f
8:12 3
mph
1020.3mb 46f 38f
8:06 3
mph
1020.3mb 46f 38f
8:00 2 3 mph 1020.3mb 46f 38f
7:54 3 5 mph 1020.4mb 46f 38f
7:48 5
mph
1020.4mb 46f 37f
7:42 3 5 mph 1020.4mb 46f 37f
7:36 2 3 mph 1020.5mb 46f 37f
7:30 2 3 mph 1020.3mb 46f 37f
7:24 2 3 mph 1020.3mb 46f 36f
7:18 2 3 mph 1020.3mb 46f 36f
7:12 3 6 mph 1020.3mb 46f 36f
7:06 5 6 mph 1020.3mb 46f 36f
7:00 3 5 mph 1020.1mb 46f 36f
6:54 3
mph
1020.2mb 46f 35f
6:48 2 3 mph 1020.2mb 46f 35f
6:42 2 5 mph 1020.3mb 46f 35f
6:36 3 5 mph 1020.3mb 46f 35f
6:30 5 6 mph 1020.3mb 46f 35f
6:24 5 6 mph 1020.1mb 46f 35f
6:18 5
mph
1019.9mb 46f 35f
6:12 3 7 mph 1019.8mb 46f 37f
6:06 5 7 mph 1019.8mb 46f 37f
6:00 6 8 mph 1019.8mb 46f 37f
5:54 7 9 mph 1019.6mb 46f 37f
5:48 7 10 mph 1019.6mb 46f 37f
5:42 8 11 mph 1019.7mb 46f 37f
5:36 7 9 mph 1019.8mb 46f 38f
5:30 8 10 mph 1019.7mb 46f 37f
5:24 6 9 mph 1019.7mb 46f 37f
5:18 7 9 mph 1019.6mb 46f 37f
5:12 7 13 mph 1019.6mb 46f 38f
5:06 8 11 mph 1019.5mb 46f 38f
5:00 8 11 mph 1019.3mb 46f 38f
4:54 7 10 mph 1019.3mb 46f 38f
4:48 9 13 mph 1019.2mb 46f 38f
4:42 8 10 mph 1019.1mb 46f 38f
4:36 7 11 mph 1019mb 46f 38f
4:30 10 13 mph 1018.9mb 46f -
4:24 9 13 mph 1018.8mb 46f 38f
4:18 9 13 mph 1018.8mb 46f 38f
4:12 10 14 mph 1018.8mb 46f 39f
4:06 9 14 mph 1018.7mb 46f 38f
4:00 10 14 mph 1018.7mb 46f 39f
3:54 10 14 mph 1018.7mb 46f 39f
3:48 10 15 mph 1018.7mb 46f 39f
3:42 11 15 mph 1018.7mb 46f 39f
3:36 9 13 mph 1018.8mb 46f 39f
3:30 10 14 mph 1018.8mb 46f 39f
3:24 9 13 mph 1018.8mb 46f 39f
3:18 9 15 mph 1018.7mb 46f 39f
3:12 8 14 mph 1018.6mb 46f 39f
3:06 9 15 mph 1018.6mb 46f 39f
3:00 10 13 mph 1018.5mb 46f 39f
2:54 10 15 mph 1018.3mb 46f 39f
2:48 11 15 mph 1018.3mb 46f 39f
2:42 10 15 mph 1018.4mb 46f 39f
2:36 10 15 mph 1018.4mb 46f 40f
2:30 10 15 mph 1018.3mb 46f 40f
2:24 11 17 mph 1018.4mb 46f 39f
2:18 11 16 mph 1018.4mb 46f 39f
2:12 10 15 mph 1018.4mb 46f 40f
2:06 10 15 mph 1018.4mb 46f 40f
2:00 11 15 mph 1018.5mb 46f 40f
1:54 10 14 mph 1018.4mb 46f 40f
1:48 10 14 mph - - -
1:42 9 14 mph 1018.3mb 46f 39f
1:36 10 14 mph 1018.2mb 46f 39f
1:30 11 14 mph 1018mb 46f 39f
1:24 9 14 mph 1017.9mb 46f 39f
1:18 10 15 mph 1017.7mb 46f 39f
1:12 11 14 mph 1017.7mb 46f 39f
1:06 8 15 mph 1017.7mb 46f 39f
1:00 10 15 mph 1017.6mb 46f 39f
12:54 11 14 mph 1017.5mb 46f 40f
12:48 11 14 mph 1017.5mb 46f 40f
12:42 8 13 mph 1017.4mb 45f 40f
12:36 9 14 mph 1017.3mb 45f 40f
12:30 8 13 mph 1017.3mb 45f 40f
12:24 9 14 mph 1017.2mb 45f 40f
12:18 9 13 mph 1017.2mb 45f 40f
12:12 10 14 mph 1017.1mb 45f 40f
12:06 8 10 mph 1017mb 45f 40f
12:00 8 13 mph 1017mb - -
lun. 12/05 11:54 8 11 mph 1017.1mb 45f 39f
11:48 8 10 mph 1017mb 45f 39f
11:42 9 11 mph 1016.9mb 45f 39f
11:36 9 13 mph 1016.8mb 45f 39f
11:30 8 13 mph 1016.8mb 45f 39f
11:24 9 13 mph 1016.9mb 45f 39f
11:18 9 11 mph 1016.9mb 45f 39f
11:12 9 13 mph 1017mb 45f 39f
11:06 9 11 mph 1016.9mb 45f 40f
11:00 6 8 mph 1016.8mb 45f 39f
10:54 6 8 mph 1016.9mb 46f 39f
10:48 6 9 mph 1016.8mb 46f 40f
10:42 6 9 mph 1016.7mb 46f 40f
10:36 7 10 mph 1016.8mb 46f 40f
10:30 8 11 mph 1016.8mb 46f 40f
10:24 8 14 mph 1016.9mb 46f 40f
10:18 10 13 mph 1016.8mb 46f 41f
10:12 10 15 mph 1016.8mb 46f 41f
10:06 10 16 mph 1016.7mb 46f 41f
10:00 11 14 mph 1016.6mb 46f 41f
9:54 10 15 mph 1016.7mb 46f 42f
9:48 10 14 mph 1016.6mb 46f 42f
9:42 9 15 mph 1016.5mb 46f 42f
9:36 10 15 mph 1016.5mb 46f 42f
9:30 11 17 mph 1016.5mb 46f 42f
9:24 14 18 mph 1016.5mb 46f 42f
9:18 13 18 mph 1016.1mb 46f 42f
9:12 15 20 mph 1015.9mb 46f 42f
9:06 13 18 mph 1015.8mb 46f 42f
9:00 10 17 mph 1015.7mb 46f 42f
8:54 11 16 mph 1015.7mb 46f 42f
8:48 10 20 mph 1015.7mb 46f 42f
8:42 10 17 mph 1015.4mb 46f 41f
8:36 13 18 mph 1015.4mb 46f 42f
8:30 13 18 mph 1015.4mb 46f 42f
8:24 13 17 mph 1015.2mb 46f 42f
8:18 14 20 mph - - -
8:12 15 21 mph 1015.1mb 46f 42f
8:06 14 18 mph 1015mb 46f 41f
8:00 13 20 mph 1015mb 46f 41f
7:54 15 20 mph 1015.1mb 46f 42f
7:48 15 20 mph - - -
7:42 13 18 mph 1015mb 46f 41f
7:36 15 22 mph 1014.8mb 46f 41f
7:30 14 22 mph 1014.8mb 46f 41f
7:24 16 22 mph 1014.7mb 46f 41f
7:18 15 24 mph - - -
7:12 15 22 mph 1014.4mb 46f 41f
7:06 14 21 mph 1014.4mb 46f 41f
7:00 11 20 mph 1014.4mb 46f 40f
6:54 11 15 mph 1014.4mb 46f 40f
6:48 13 16 mph 1014.4mb - -
6:42 9 17 mph 1014.4mb 46f 41f
6:36 9 13 mph 1014.6mb 46f 40f
6:30 11 16 mph 1014.6mb 46f 41f
6:24 9 14 mph 1014.6mb 46f 40f
6:18 7 10 mph - - -
6:12 8 10 mph 1014.7mb 46f 40f
6:06 8 11 mph 1014.8mb 46f 40f
6:00 6 7 mph 1015mb 46f 39f
5:54 6 8 mph 1015.1mb 46f 39f
5:48 7 8 mph - - -
5:42 6 7 mph 1015mb 46f 40f
5:36 6
mph
1015.1mb 46f 40f
5:30 5 6 mph 1015.1mb 46f 40f
5:24 6
mph
1015.1mb 46f 41f
5:18 3 6 mph - - -
5:12 3 6 mph 1014.9mb 46f 41f
5:06 3 6 mph 1014.8mb 46f 41f
5:00 3 6 mph 1014.8mb 46f 41f
4:54 6 8 mph 1014.8mb 46f 41f
4:48 3 6 mph 1014.8mb - -
4:42 3 6 mph 1014.6mb 46f 41f
4:36 5 6 mph 1014.6mb 46f 41f
4:30 6 7 mph 1014.6mb - -
4:24 5 6 mph 1014.5mb 46f 41f
4:18 3 6 mph 1014.4mb 46f 42f
4:12 1 5 mph 1014.4mb 46f 42f
4:06 3 7 mph 1014.4mb 46f 42f
4:00 6 9 mph 1014.5mb 46f 42f
3:54 6 10 mph 1014.2mb 46f 42f
3:48 8 14 mph 1014.2mb 46f 42f
3:42 7 14 mph 1014.1mb 46f 42f
3:36 9 16 mph 1014.1mb 46f 42f
3:30 10 16 mph 1014mb 46f 42f
3:24 11 16 mph 1014mb 46f 43f
3:18 11 17 mph 1013.9mb 46f 42f
3:12 14 18 mph 1013.8mb 46f 42f
3:06 13 16 mph 1013.8mb 46f 43f
3:00 10 14 mph 1013.7mb 46f 43f
2:54 10 18 mph 1013.7mb 46f 43f
2:48 13 17 mph 1013.5mb 46f 43f
2:42 9 15 mph 1013.4mb 46f 43f
2:36 13 17 mph 1013.3mb 46f 42f
2:30 9 14 mph 1013.2mb 46f 43f
2:24 10 15 mph 1013.3mb 46f 42f
2:18 11 16 mph 1013.3mb 46f 42f
2:12 3 8 mph 1013.3mb 46f 41f
2:06 2 5 mph 1013.2mb 46f 39f
2:00 2 5 mph 1013.3mb 46f 39f
1:54 3 5 mph 1013.3mb 46f 39f
1:48 5
mph
1013.2mb 46f 39f
1:42 3 5 mph 1013.3mb 46f 39f
1:36  -  2 mph 1013.2mb 46f 39f
1:30 2
mph
1013.1mb 46f 39f
1:24 2 3 mph 1013.1mb 46f 39f
1:18 1 2 mph 1013.2mb 46f 39f
1:12  -  5 mph 1013.3mb 46f 39f
1:06 2 5 mph 1013.3mb 46f 39f
1:00 3 5 mph 1013.4mb 46f 38f
12:54 1 5 mph 1013.4mb 46f 38f
12:48 3
mph
- - -
12:42 2 3 mph 1013.6mb 46f 37f
12:36 2 3 mph 1013.6mb 46f 37f
12:30 2 5 mph 1013.7mb 46f 37f
12:24 3
mph
1013.7mb 46f 37f
12:18 2 3 mph 1013.7mb 46f 37f
12:12 5
mph
1013.8mb 46f 36f
12:06 3 5 mph 1013.9mb 46f 36f
11:54 3 5 mph 1014.1mb 46f 36f
11:48 3
mph
1014.1mb 46f 36f
11:42 3 5 mph 1014.2mb 46f 36f
11:36 5 6 mph 1014.3mb 46f 36f
11:30 3 5 mph 1014.4mb 46f 36f
11:24 3 5 mph 1014.6mb 46f 36f
11:18 2 3 mph 1014.7mb 46f 36f
11:12 3 5 mph 1014.8mb 46f 36f
11:06 3 5 mph 1015mb 46f 35f
11:00 3
mph
1015.2mb 46f 35f
10:54 2 5 mph 1015.3mb 46f 35f
10:48 3 5 mph 1015.5mb 46f 34f
10:42 3 5 mph 1015.5mb 46f 34f
10:36 3 5 mph 1015.7mb 46f 34f
9:42 6 8 mph 1016.8mb 46f 34f
9:36 7 8 mph 1016.9mb 46f 33f
9:30 6 8 mph 1016.8mb 46f 33f
9:18 6 8 mph 1016.9mb 46f 33f
9:12 6 8 mph 1017mb 46f 33f
9:06 6 8 mph 1016.9mb 46f 33f
9:00 6 7 mph 1016.9mb 46f -
8:54 6 8 mph 1016.9mb 46f 33f
8:48 6 8 mph 1016.9mb 46f 33f
8:42 8 9 mph 1016.9mb 46f 33f
8:36 7 9 mph 1016.8mb 46f 33f
8:30 7 8 mph 1016.9mb 46f 33f
8:24 7 9 mph 1017mb 46f 33f
8:18 8 9 mph 1017mb 46f 32f
8:12 7 8 mph 1017.1mb 46f 32f
8:06 8 9 mph 1017.2mb 46f 32f
8:00 6 8 mph 1017.3mb 46f 33f
7:54 8 9 mph 1017.3mb 46f 33f
7:48 7 8 mph 1017.5mb 46f 32f
7:42 7 11 mph 1017.6mb 46f 32f
7:36 10 13 mph 1017.5mb 46f 32f
7:30 10 13 mph 1017.6mb 46f 32f
7:24 7 9 mph 1017.7mb 46f 33f
7:18 7 11 mph 1017.7mb 46f 33f
7:12 9 11 mph 1017.6mb 46f 34f
7:06 9 11 mph 1017.6mb 46f 34f
7:00 9 11 mph 1017.2mb 46f 34f
6:54 8 10 mph 1017.3mb 46f 34f
6:48 8 9 mph 1017.3mb 46f 34f
6:42 6 8 mph 1017.5mb 46f 34f
6:36 7
mph
1017.8mb 47f 33f
6:30 7 8 mph 1018mb 47f 33f
6:24 7 8 mph 1018.2mb 47f 33f
6:18 7 8 mph 1018mb 47f 33f
6:12 6 7 mph 1018.1mb 47f 33f
6:06 7
mph
1018.2mb 47f 33f
6:00 5 7 mph 1018.7mb 47f 33f
5:54 6 8 mph 1018.7mb 47f 33f
5:48 6 9 mph 1018.4mb 47f 33f
5:42 8 9 mph 1018.6mb 47f 34f
5:36 7 9 mph 1018.7mb 47f 34f
5:30 8 10 mph 1018.8mb 47f 35f
5:24 9 10 mph 1018.9mb 47f 35f
5:18 8 9 mph 1019mb 47f 36f
5:12 7 8 mph 1019.3mb 47f 36f
5:06 6 9 mph 1019.5mb 47f 35f
5:00 8 10 mph 1019.6mb 47f 35f
4:54 9 11 mph 1019.4mb 47f 35f
4:48 9 10 mph 1019.2mb 47f 35f
4:42 8 10 mph 1019.7mb 47f 35f
4:36 7 9 mph 1019.9mb 47f 34f
4:30 7 8 mph 1019.9mb 47f 34f
4:24 6 9 mph 1020mb 47f 33f
4:18 6 8 mph 1020.2mb 47f 33f
4:12 5 6 mph 1020.4mb 47f 33f
4:06 5 7 mph 1020.4mb 47f 33f
4:00 3 6 mph 1020.4mb 47f 33f
3:54 5 6 mph 1020.3mb 47f 34f
3:48 6 7 mph 1020.4mb 47f 34f
3:42 6 7 mph 1020.2mb 47f 35f
3:36 5 6 mph 1020.2mb 47f 35f
3:30 5 8 mph 1020mb 47f 35f
3:24 6 9 mph 1019.8mb 47f 35f
3:18 8 10 mph 1019.6mb 47f 35f
3:12 9 13 mph 1019.1mb 47f 35f
3:06 9 11 mph 1019.2mb 47f 35f
3:00 8 11 mph 1019.6mb - -
2:54 6 8 mph 1020mb 47f 35f
2:48 6 7 mph 1020.1mb 47f 35f
2:42 6 7 mph 1020.2mb 47f 35f
2:36 5 8 mph 1020.5mb 47f 34f
2:30 6 7 mph 1020.6mb 47f 35f
2:24 5 7 mph 1020.7mb 47f 34f
2:18 6 8 mph 1020.8mb 47f 35f
2:12 5 7 mph 1020.7mb 47f 34f
2:06 5 7 mph 1020.7mb 47f 34f
2:00 5 6 mph 1020.9mb 47f 33f
1:54 5 6 mph 1021.1mb 47f 34f
1:48 5 6 mph 1021mb 47f 34f
1:42 5 6 mph 1021.1mb 47f 34f
1:36 5 7 mph 1021.1mb 47f 34f
1:30 7 9 mph 1021.2mb 47f 35f
1:24 8 10 mph 1021.1mb 47f 36f
1:18 9 13 mph 1020.9mb 47f 35f
1:12 10 13 mph 1020.7mb 47f 35f
1:06 9 10 mph 1020.8mb 47f 35f
1:00 9 11 mph 1021mb 47f 35f
12:54 10 13 mph 1021mb 47f 35f
12:48 9 11 mph 1021mb 47f 36f
12:42 10 13 mph 1021.1mb 47f -
12:36 10 13 mph 1021.1mb 47f -
12:30 11 13 mph 1021.2mb 47f 36f
12:24 13 16 mph 1021.1mb 47f 36f
12:18 11 14 mph 1021mb 47f 36f
12:12 13 15 mph 1021.1mb 47f 36f
12:06 13 15 mph 1021.1mb 47f 36f
12:00 13 15 mph 1021.3mb 47f 36f
dim. 12/04 11:54 14 15 mph 1021.3mb 47f 36f
11:48 11 15 mph 1021.6mb 47f 36f
11:42 13 15 mph 1021.6mb 47f 36f
11:36 14 16 mph 1021.7mb 47f 37f
11:30 14 16 mph 1021.7mb 47f 36f
11:24 14 16 mph 1021.7mb 47f 36f
11:18 14 16 mph 1021.8mb 47f 37f
11:12 16 18 mph 1021.8mb 47f 36f
11:06 16 18 mph 1021.7mb 47f 37f
11:00 15 17 mph 1021.8mb 47f 36f
10:54 15 17 mph 1021.8mb 47f 37f
10:48 13 15 mph 1022mb 47f 37f
10:42 13 16 mph 1022.1mb 47f 37f
10:36 14 15 mph 1022.2mb 47f 37f
10:30 9 13 mph 1022.2mb 46f -
10:24 5 7 mph 1022.4mb 47f 35f
10:18 6 7 mph 1022.3mb 47f 34f
10:12 6 7 mph 1022.2mb 47f 34f
10:06 6 7 mph 1022.3mb 47f 34f
10:00 5 6 mph 1022.4mb 47f 33f
9:54 5 6 mph 1022.4mb 47f 34f
9:48 3 5 mph 1022.6mb 47f 34f
9:42 5
mph
1022.6mb 47f 34f
9:36 3 5 mph 1022.6mb 47f 34f
9:30 3 6 mph 1022.6mb 47f 34f
9:24 3 6 mph 1022.6mb 47f 34f
9:18 5 6 mph 1022.7mb 47f 34f
9:12 3 5 mph 1022.8mb 47f 34f
9:06 3 6 mph 1022.8mb 47f 34f
9:00 3 5 mph 1022.7mb 47f 34f
8:54 5 6 mph 1022.6mb 47f 34f
8:48 6 7 mph 1022.6mb 47f 34f
8:42 6 7 mph 1022.7mb 47f 35f
8:36 5 7 mph 1022.8mb 47f 35f
8:30 6 7 mph 1022.8mb 47f 35f
8:24 6 7 mph 1022.9mb 47f 35f
8:18 5 6 mph - - -
8:12 6 7 mph 1023mb 47f 35f
8:06 6 7 mph 1023mb 47f 35f
8:00 7
mph
1022.9mb 47f 35f
7:54 6 7 mph 1023mb 47f 36f
7:48 6 8 mph - - -
7:42 7 8 mph 1022.8mb 47f 36f
7:36 7 8 mph 1022.8mb 47f 36f
7:30 3 6 mph 1022.9mb 47f 36f
7:24 6 7 mph 1023mb 47f 36f
7:18 6
mph
1023mb 47f 36f
7:12 6 7 mph 1023mb 47f 36f
7:06 6 7 mph 1023mb 47f 37f
7:00 6 8 mph 1022.9mb 47f 37f
6:54 5 6 mph 1022.8mb 47f 37f
6:48 5 6 mph 1022.9mb - -
6:42 5 6 mph 1022.8mb 47f 37f
6:36 5 6 mph 1022.7mb 47f 37f
6:30 5 6 mph 1022.7mb 47f 37f
6:24 6 7 mph 1022.8mb 47f 38f
6:18 6 7 mph - - -
6:12 3 6 mph 1022.6mb 47f 38f
6:06 5 6 mph 1022.5mb 47f 38f
6:00 3 5 mph 1022.4mb 47f 38f
5:54 3 5 mph 1022.3mb 47f 38f
5:48 3 6 mph - - -
5:42 5 6 mph 1022.4mb 47f 38f
5:36 5 6 mph 1022.3mb 47f 39f
5:30 5
mph
1022.5mb 47f 39f
5:24 3 6 mph 1022.4mb 47f 39f
5:18 5 6 mph - - -
5:12 3 5 mph 1022.4mb 47f 39f
5:06 5 6 mph 1022.3mb 47f 39f
5:00 5 6 mph 1022.3mb 47f 40f
4:54 3 6 mph 1022.2mb 47f 40f
4:48 3 5 mph - - -
4:42 3 5 mph 1022.1mb 47f 40f
4:36 5 6 mph 1022.1mb 47f 40f
4:30 3 5 mph 1022mb 47f 40f
4:24 3 7 mph 1021.9mb 47f 40f
4:18 6 8 mph 1021.8mb 47f 40f
4:12 6 8 mph 1021.7mb 47f 40f
4:06 8 10 mph 1021.7mb 47f 40f
4:00 8 10 mph 1021.7mb 47f 41f
3:54 7 9 mph 1021.7mb 47f 41f
3:48 8 10 mph 1021.8mb 47f 41f
3:42 8 10 mph 1021.8mb 47f 41f
3:36 7 9 mph 1021.9mb 47f 41f
3:30 5 7 mph 1022mb 47f 42f
3:24 8 11 mph 1021.8mb 47f 41f
3:18 8 11 mph 1021.7mb 47f 41f
3:12 6 8 mph 1021.6mb 47f 41f
3:06 5 8 mph 1021.8mb 47f 42f
3:00 7 10 mph 1021.7mb 47f 41f
2:54 7 10 mph 1021.7mb 47f 41f
2:48 7 11 mph 1021.9mb 47f 41f
2:42 8 13 mph 1022mb 47f 41f
2:36 8 13 mph 1022mb 47f 41f
2:30 10 13 mph 1021.9mb 47f 41f
2:24 9 11 mph 1021.8mb 47f 41f
2:18 5 8 mph 1021.7mb 47f 41f
2:12 9 15 mph 1021.7mb 47f 40f
2:06 8 11 mph 1021.6mb 47f 40f
2:00 9 11 mph 1021.5mb 47f 40f
1:54 5 11 mph 1021.5mb 47f 40f
1:48 9 13 mph 1021.6mb 47f 40f
1:42 7 11 mph 1021.4mb 47f 40f
1:36 9 14 mph 1021.6mb 47f 40f
1:30 10 17 mph 1021.5mb 47f 40f
1:24 8 15 mph 1021.4mb 47f 40f
1:18 6 11 mph 1021.5mb 47f 39f
1:12 9 14 mph 1021.6mb 47f 39f
1:06 6 11 mph 1021.6mb 47f 39f
1:00 7 11 mph 1021.6mb 47f 39f
12:54 9 15 mph 1021.5mb 47f 39f
12:48 9 11 mph 1021.5mb 47f 39f
12:42 9 14 mph 1021.8mb 47f 39f
12:36 13 18 mph 1021.7mb 47f 39f
12:30 10 17 mph 1021.7mb 47f 38f
12:24 9 15 mph 1021.7mb 47f 38f
12:18 8 14 mph 1021.6mb 47f 38f
12:12 11 15 mph 1021.8mb 47f 38f
12:06 10 16 mph 1021.8mb 47f 38f
12:00 6 11 mph 1021.8mb 47f 38f
11:54 9 14 mph 1021.9mb 47f 38f
11:48 13 16 mph 1021.9mb 46f 38f
11:42 11 16 mph 1022mb 47f 38f
11:36 10 15 mph 1022.1mb 46f 38f
11:30 11 15 mph 1022mb 46f 38f
11:24 9 13 mph 1022.1mb 46f 37f
11:18 13 17 mph 1022.2mb 46f 38f
11:12 9 15 mph 1022.2mb 46f 38f
11:06 9 15 mph 1022.1mb 46f 38f
11:00 8 15 mph 1022.3mb 46f 37f
10:54 13 15 mph 1022.2mb 46f 37f
10:48 13 16 mph 1022.1mb 46f 37f
10:42 10 14 mph 1022.3mb 46f 37f
10:36 9 14 mph 1022.3mb 46f 38f
10:30 13 18 mph 1022.3mb 46f 37f
10:24 14 20 mph 1022.3mb 46f 37f
10:18 10 17 mph 1022.3mb 46f 38f
10:12 13 17 mph 1022.4mb 46f 37f
10:06 10 16 mph 1022.3mb 46f 37f
10:00 9 17 mph 1022.5mb 46f 37f
9:54 11 18 mph 1022.6mb 46f 36f
9:48 10 16 mph 1022.5mb 46f 36f
9:42 13 17 mph 1022.5mb 46f 36f
9:36 10 17 mph 1022.6mb 46f 36f
9:30 10 14 mph 1022.7mb 47f 36f
9:24 8 14 mph 1022.5mb 47f 36f
9:18 9 11 mph 1022.5mb 47f 36f
9:12 7 13 mph 1022.5mb 47f 36f
9:06 10 15 mph 1022.3mb 47f 35f
9:00 9 11 mph 1022.2mb 47f 35f
8:54 10 13 mph 1022.3mb 47f 35f
8:48 8 10 mph 1022.2mb 47f 35f
8:42 7 13 mph 1022.1mb 47f 35f
8:36 6 10 mph 1022.2mb 47f 35f
8:30 8 11 mph 1022.1mb 47f 34f
8:24 8 9 mph 1022.2mb 47f 34f
8:18 8 10 mph 1022.3mb 47f 34f
8:12 8 11 mph 1022.1mb 47f 34f
8:06 7 11 mph 1022.2mb 47f 34f
8:00 6 10 mph 1022.1mb 47f 34f
7:54 7 10 mph 1022mb 47f 34f
7:48 7 8 mph 1022mb 47f 35f
7:42 6 8 mph 1022mb 47f 35f
7:36 6 8 mph 1022.1mb 47f 34f
7:30 6 7 mph 1021.9mb - -
7:24 6 8 mph 1021.6mb 47f 34f
7:18 6 8 mph 1021.6mb 47f 34f
7:12 7 9 mph 1021.6mb 47f 34f
7:06 6 8 mph 1021.5mb 47f 34f
7:00 6 8 mph 1021.5mb 47f 34f
6:54 6 7 mph 1021.6mb 47f 34f
6:48 5 8 mph 1021.5mb 47f 34f
6:42 5 7 mph 1021.5mb 47f 34f
6:36 5 7 mph 1021.4mb 47f 34f
6:30 5 7 mph 1021.4mb 47f 34f
6:24 3 5 mph 1021.5mb 47f 34f
6:18 3 6 mph 1021.4mb 47f 34f
6:12 5 6 mph 1021.3mb 47f 34f
6:06 5 6 mph 1021.1mb 47f 33f
6:00 5 6 mph 1021.2mb 47f 34f
5:54 3 6 mph 1021.3mb 47f 34f
5:48 5 6 mph 1021.3mb 47f 34f
5:42 3 5 mph 1021.2mb 47f 34f
5:36 5 6 mph 1021.2mb 47f 34f
5:30 6 7 mph 1021.2mb 47f 34f
5:24 5 6 mph 1021.1mb 47f 34f
5:18 6 8 mph 1020.9mb 47f 34f
5:12 6 8 mph 1020.8mb 47f 34f
5:06 5 7 mph 1020.9mb 47f 34f
5:00 6 8 mph 1020.9mb 47f 34f
4:54 5 9 mph 1020.9mb 47f 34f
4:48 5 8 mph 1020.9mb 47f 34f
4:42 6 10 mph 1020.9mb 47f 34f
4:36 8 10 mph 1020.9mb 47f 34f
4:30 7 9 mph 1020.9mb 47f 34f
4:24 6 7 mph 1021mb 47f 34f
4:18 6 9 mph 1021mb 47f 34f
4:12 8 11 mph 1020.9mb 47f 34f
4:06 9 13 mph 1020.9mb 47f 34f
4:00 8 11 mph 1021mb 47f 34f
3:54 9 13 mph 1021mb 48f 34f
3:48 8 11 mph 1021.1mb 48f 34f
3:42 8 11 mph 1021.1mb 48f 34f
3:36 8 10 mph 1021.1mb 48f 33f
3:30 8 10 mph 1021.1mb 48f 33f
3:24 8 10 mph 1021.1mb 48f 34f
3:18 7 10 mph 1021.1mb 48f 34f
3:12 6 7 mph 1021.1mb 48f 34f
3:06 6 9 mph 1021.1mb 48f 34f
3:00 8 11 mph 1021mb 48f 34f
2:54 7 10 mph 1020.9mb 48f 34f
2:48 7 9 mph 1020.8mb 48f 34f
2:42 8 10 mph 1020.8mb 48f 34f
2:36 7 9 mph 1020.8mb 48f 34f
2:30 6 10 mph 1020.8mb 48f 34f
2:18 7 10 mph 1020.9mb 48f 35f
2:12 8 13 mph 1020.8mb 48f 35f
2:06 9 15 mph 1020.7mb 48f 35f
2:00 9 14 mph 1020.6mb 48f 35f
1:54 10 14 mph 1020.4mb 48f 35f
1:48 10 13 mph 1020.4mb 48f 35f
1:42 9 15 mph 1020.3mb 48f 35f
1:36 8 10 mph 1020.3mb 48f 35f
1:30 9 11 mph 1020.3mb 48f 35f
1:24 8 13 mph 1020.3mb 48f 36f
1:18 6 11 mph 1020.2mb 48f 36f
1:12 9 14 mph 1019.9mb 48f 36f
1:06 10 14 mph 1019.7mb 48f 35f
1:00 9 14 mph 1019.6mb 48f -
12:54 9 14 mph 1019.6mb 48f 35f
12:48 8 11 mph 1019.6mb 48f 35f
12:42 7 9 mph 1019.5mb 48f 35f
12:36 8 9 mph 1019.5mb 48f 35f
12:30 6 9 mph 1019.5mb 48f 35f
12:24 7 10 mph 1019.3mb 47f 35f
12:18 7 10 mph 1019.3mb 47f 35f
12:12 6 9 mph 1019.2mb 47f 36f
12:06 7 9 mph 1019.2mb 47f 36f
12:00 7 10 mph 1019.2mb 47f 36f
sam. 12/03 11:54 8 13 mph 1019.1mb 47f 36f
11:48 7 9 mph 1019.1mb 47f 36f
11:42 6 9 mph 1019mb 47f 36f
11:36 8 10 mph 1018.8mb 47f 36f
11:30 5 6 mph 1018.9mb 47f 36f
11:24 5 8 mph 1018.8mb 47f 36f
11:18 6 8 mph 1018.6mb 47f 36f
11:12 6 8 mph 1018.5mb 47f 37f
11:06 5 9 mph 1018.6mb 47f 37f
11:00 8 13 mph 1018.4mb 47f 37f
10:54 9 13 mph 1018.1mb 47f 37f
10:48 7 8 mph - - -
10:42 6 9 mph 1018mb 47f 37f
10:36 7 9 mph 1018mb 47f 37f
10:30 6 10 mph 1017.9mb - -
10:24 7 14 mph 1017.7mb 47f 38f
10:18 10 14 mph 1017.5mb 47f 38f
10:12 10 14 mph 1017.5mb 47f 38f
10:06 9 14 mph 1017.5mb 47f 38f
10:00 9 13 mph 1017.5mb 47f 38f
9:54 6 10 mph 1017.5mb 47f 38f
9:48 8 13 mph 1017.5mb 47f 38f
9:42 8 14 mph 1017.5mb 47f 38f
9:36 9 13 mph 1017.5mb 47f 38f
9:30 8 10 mph 1017.6mb - -
9:24 7 11 mph 1017.7mb 47f 39f
9:18 8 13 mph 1017.8mb 47f 39f
9:12 8 11 mph 1017.7mb 47f 39f
9:06 8 11 mph 1017.7mb 47f 39f
9:00 10 14 mph 1017.7mb 47f 39f
8:54 11 17 mph 1017.7mb 47f 39f
8:48 10 16 mph - - -
8:42 9 14 mph 1017.8mb 47f 40f
8:36 10 13 mph 1017.7mb 47f 40f
8:30 8 15 mph 1017.7mb 47f 40f
8:24 9 15 mph 1017.6mb 47f 40f
8:18 10 16 mph - - -
8:12 10 16 mph 1017.5mb 48f 40f
8:06 15 18 mph 1017.4mb 48f 40f
8:00 11 18 mph 1017.4mb 48f 41f
7:54 11 16 mph 1017.5mb 48f 41f
7:48 11 16 mph - - -
7:42 13 16 mph 1017.4mb 48f 41f
7:36 13 20 mph 1017.4mb 48f 41f
7:30 13 21 mph 1017.2mb 48f 41f
7:24 13 22 mph 1017.1mb 48f 41f
7:18 13 17 mph 1017.1mb 48f 41f
7:12 13 20 mph 1017mb 48f 42f
7:06 9 14 mph 1017mb 48f 42f
7:00 9 15 mph 1016.9mb 48f 42f
6:54 11 17 mph 1016.8mb 48f 42f
6:48 14 18 mph 1016.7mb - -
6:42 9 15 mph 1016.7mb 48f 42f
6:36 10 18 mph 1016.7mb 48f 42f
6:30 9 14 mph 1016.7mb 48f 42f
6:24 11 15 mph 1016.8mb 48f 42f
6:18 8 13 mph 1016.9mb 48f 42f
6:12 7 10 mph 1016.8mb 48f 42f
6:06 9 13 mph 1016.7mb 48f 42f
6:00 9 14 mph 1016.5mb 48f 42f
5:54 9 14 mph 1016.4mb 48f 42f
5:48 9 16 mph 1016.3mb - -
5:42 10 15 mph 1016.1mb 48f 42f
5:36 8 15 mph 1016mb 48f 42f
5:30 9 14 mph 1015.9mb 48f 42f
5:24 10 15 mph 1015.7mb 48f 42f
5:18 8 15 mph - - -
5:12 10 18 mph 1015.5mb 48f 42f
5:06 10 18 mph 1015.3mb 48f 42f
5:00 9 15 mph 1015.2mb 48f 42f
4:54 9 15 mph 1015.2mb 48f 42f
4:48 11 16 mph - - -
4:42 13 18 mph 1014.9mb 48f 42f
4:36 13 17 mph 1014.8mb 48f 43f
4:30 11 15 mph 1014.6mb 48f 42f
4:24 11 18 mph 1014.5mb 48f 43f
4:18 13 20 mph 1014.5mb 48f 43f
4:12 9 16 mph 1014.4mb 48f 43f
4:06 10 18 mph 1014.1mb 48f 43f
4:00 11 18 mph 1014mb 48f 43f
3:54 13 16 mph 1014.1mb 48f 43f
3:48 10 22 mph 1013.9mb 48f 43f
3:42 15 20 mph 1013.8mb 48f 43f
3:36 13 17 mph 1013.7mb 48f 44f
3:30 14 24 mph 1013.7mb 48f 44f
3:24 15 22 mph 1013.6mb 48f 44f
3:18 11 18 mph 1013.6mb 48f 44f
3:12 15 20 mph 1013.5mb 48f 43f
3:06 13 21 mph 1013.5mb 48f 43f
3:00 20 25 mph 1013.4mb 48f 44f
2:54 17 26 mph 1013.2mb 48f 44f
2:48 14 22 mph 1013.3mb 48f 44f
2:42 16 24 mph 1013.1mb 48f 44f
2:36 18 24 mph 1012.9mb 48f 44f
2:30 17 24 mph 1012.9mb 48f 44f
2:24 20 30 mph 1012.8mb 48f 44f
2:18 15 22 mph 1012.8mb 48f 44f
2:12 13 21 mph 1012.7mb 48f 45f
2:06 20 26 mph 1012.6mb 48f 45f
2:00 20 26 mph 1012.5mb 48f 45f
1:54 20 29 mph 1012.5mb 48f 45f
1:48 22 28 mph 1012.5mb 48f 45f
1:42 21 25 mph 1012.4mb 48f 45f
1:36 18 26 mph 1012.4mb 48f 45f
1:30 16 23 mph 1012.3mb 48f 46f
1:24 20 28 mph 1012.3mb 48f 46f
1:18 15 22 mph 1012.3mb 48f 46f
1:12 18 24 mph 1012.2mb 48f 46f
1:06 17 24 mph 1012.2mb 48f 46f
1:00 15 21 mph 1012.1mb 48f 46f
12:54 16 22 mph 1012mb 48f 46f
12:48 17 25 mph 1012mb 48f 46f
12:42 15 23 mph 1011.9mb 48f 46f
12:36 14 20 mph 1012mb 48f 46f
12:30 11 20 mph 1012.1mb 48f 46f
12:24 13 21 mph 1012.1mb 48f 46f
12:18 14 20 mph 1012.1mb 48f 46f
12:12 15 22 mph 1012.1mb 48f 46f
12:06 15 23 mph 1012.2mb 48f 45f
12:00 16 21 mph 1012.2mb 48f -
11:54 16 24 mph 1012.2mb 47f 45f
11:48 18 23 mph 1012.1mb 47f 45f
11:42 17 26 mph 1012.4mb 47f 45f
11:36 20 25 mph 1012.3mb 47f 45f
11:30 14 25 mph 1012.3mb 47f 45f
11:24 17 26 mph 1012.3mb 47f 45f
11:18 16 29 mph 1012.1mb 47f 45f
11:12 15 24 mph 1012.2mb 47f 45f
11:06 14 21 mph 1012.1mb 47f 45f
11:00 18 25 mph 1012.1mb 47f 45f
10:54 15 24 mph 1012mb 47f 45f
10:48 18 28 mph 1012.1mb 47f 44f
10:42 20 29 mph 1012mb 47f 44f
10:36 20 29 mph 1012.1mb 47f 44f
10:30 20 24 mph 1012.1mb 47f 44f
10:24 14 25 mph 1012.2mb 47f 44f
10:18 18 26 mph 1012.2mb 47f 44f
10:12 17 25 mph 1012.1mb 47f 44f
10:06 15 25 mph 1012mb 47f 44f
10:00 13 25 mph 1012.1mb 47f 44f
9:54 14 29 mph 1012.2mb 47f 44f
9:48 16 24 mph 1012.1mb 47f 43f
9:42 18 26 mph 1012.1mb 48f 43f
9:36 15 23 mph 1012.1mb 48f 43f
9:30 20 28 mph 1012mb 48f 43f
9:24 15 22 mph 1011.9mb 48f 43f
9:18 18 24 mph 1011.8mb 48f 42f
9:12 18 25 mph 1011.8mb 48f 42f
9:06 18 23 mph 1011.7mb 48f 42f
9:00 15 22 mph 1011.8mb 48f 42f
8:54 16 22 mph 1011.7mb 48f 42f
8:48 15 22 mph 1011.6mb 48f 42f
8:42 17 22 mph 1011.6mb 48f 41f
8:36 14 22 mph 1011.5mb 48f 42f
8:30 14 23 mph 1011.5mb 48f 42f
8:24 16 23 mph 1011.4mb 48f 41f
8:18 16 23 mph 1011.4mb 48f 41f
8:12 17 24 mph 1011.3mb 48f 41f
8:06 16 22 mph 1011.3mb 48f 41f
8:00 14 22 mph 1011.3mb 48f 41f
7:54 13 20 mph 1011.2mb 48f 41f
7:48 14 22 mph 1011.1mb 48f 41f
7:42 14 23 mph 1011.1mb 48f 40f
7:36 16 23 mph 1010.9mb 48f 40f
7:30 13 21 mph 1010.9mb 48f 40f
7:24 14 21 mph 1010.8mb 48f 40f
7:18 14 21 mph 1010.8mb 48f 40f
7:12 11 17 mph 1010.7mb 48f 40f
7:06 11 15 mph 1010.7mb 48f 40f
7:00 14 17 mph 1010.7mb 48f 40f
6:54 10 20 mph 1010.7mb 48f 40f
6:48 13 17 mph 1010.7mb 48f 40f
6:42 14 21 mph 1010.6mb 48f 40f
6:36 10 18 mph 1010.6mb 48f 40f
6:30 13 21 mph 1010.4mb 48f 40f
6:24 16 21 mph 1010.4mb 48f 40f
6:18 15 21 mph 1010.2mb 48f 40f
6:12 11 22 mph 1010.2mb 48f 40f
6:06 13 20 mph 1010.1mb 48f 40f
6:00 14 22 mph 1010.1mb 48f 40f
5:54 11 18 mph 1010.1mb 48f 40f
5:48 13 20 mph 1010.1mb 48f 40f
5:42 13 17 mph 1010mb 48f 40f
5:36 13 16 mph 1010mb 48f 40f
5:30 9 13 mph 1010mb 48f 40f
5:24 9 16 mph 1010mb 48f 40f
5:18 8 16 mph 1010mb 48f 40f
5:12 13 20 mph 1009.8mb 48f 40f
5:06 9 16 mph 1009.9mb 48f 40f
5:00 11 16 mph 1009.8mb 48f 40f
4:54 9 15 mph 1009.7mb 48f 40f
4:48 10 16 mph 1009.6mb 48f 40f
4:42 14 21 mph 1009.6mb 48f 40f
4:36 14 18 mph 1009.6mb 48f 40f
4:30 14 20 mph 1009.6mb 48f 40f
4:24 10 16 mph 1009.6mb 48f 40f
4:18 9 15 mph 1009.6mb 48f 40f
4:12 13 17 mph 1009.6mb 48f 40f
4:06 11 18 mph 1009.5mb 48f 41f
4:00 14 20 mph 1009.5mb 48f 41f
3:54 11 20 mph 1009.5mb 48f 41f
3:48 14 20 mph 1009.3mb 48f 41f
3:42 13 17 mph 1009.2mb 48f 41f
3:36 10 16 mph 1009.4mb 48f 41f
3:30 11 17 mph 1009.4mb 48f 41f
3:24 8 17 mph 1009.3mb 48f 41f
3:18 10 17 mph 1009.1mb 48f 41f
3:12 11 18 mph 1009.1mb 48f 42f
3:06 15 21 mph 1009.2mb 48f 42f
3:00 13 17 mph 1009.2mb 48f 42f
2:54 15 22 mph 1009.1mb 48f 42f
2:48 10 21 mph 1009mb 48f 42f
2:42 14 22 mph 1009mb 48f 42f
2:36 13 21 mph 1008.9mb 48f 42f
2:30 13 18 mph 1008.9mb - -
2:24 14 22 mph 1008.9mb 48f 42f
2:18 15 23 mph 1008.8mb 48f 43f
2:12 11 25 mph 1008.8mb 48f 42f
2:06 17 23 mph 1008.5mb 48f 43f
2:00 15 18 mph 1008.8mb 48f 43f
1:54 11 17 mph 1009mb 48f 43f
1:48 15 21 mph 1008.8mb 48f 43f
1:42 10 16 mph 1008.9mb 48f 42f
1:36 13 20 mph 1008.8mb 48f 43f
1:30 13 22 mph 1008.9mb 48f 42f
1:24 14 20 mph 1008.9mb 48f 42f
1:18 10 18 mph 1008.8mb 48f 42f
1:12 10 17 mph 1008.7mb 48f 42f
1:06 13 23 mph 1008.5mb 48f 42f
1:00 13 20 mph 1008.4mb 48f 42f
12:54 15 21 mph 1008.4mb 48f 42f
12:48 15 21 mph 1008.4mb 48f 42f
12:42 15 25 mph 1008.3mb 48f 42f
12:36 11 16 mph 1008.3mb 48f 42f
12:30 17 25 mph 1008.3mb 48f 42f
12:24 17 22 mph 1008.1mb 48f 42f
12:18 18 22 mph 1008.2mb 48f 42f
12:12 16 26 mph 1008.3mb 48f 42f
12:06 18 22 mph 1008.1mb 48f 42f
12:00 18 23 mph 1008.1mb 48f 42f
ven. 12/02 11:54 21 23 mph 1008.2mb 48f 42f
11:48 18 23 mph 1008.3mb 48f 42f
11:42 18 23 mph 1008.3mb 48f 42f
11:36 18 21 mph 1008.4mb 48f 42f
11:30 17 24 mph 1008.5mb 48f 42f
11:24 15 20 mph 1008.5mb 48f 42f
11:18 15 17 mph 1008.6mb 48f 42f
11:12 14 20 mph 1008.6mb 48f 42f
11:06 14 18 mph 1008.6mb 48f 42f
11:00 16 20 mph 1008.6mb 48f 42f
10:54 16 21 mph 1008.7mb 48f 43f
10:48 16 20 mph - - -
10:42 14 20 mph 1008.8mb 47f 43f
10:36 13 15 mph 1008.8mb 47f 43f
10:30 14 16 mph 1008.8mb 47f 43f
10:24 14 15 mph 1008.8mb 47f 43f
10:18 14 16 mph 1008.8mb 47f 43f
10:12 14 17 mph 1008.7mb 47f 43f
10:06 13 16 mph 1008.6mb 47f 43f
10:00 14 16 mph 1008.6mb 47f 44f
9:54 11 16 mph 1008.6mb 47f 44f
9:48 14 16 mph 1008.5mb 47f 44f
9:42 11 15 mph 1008.5mb 47f 44f
9:36 11 15 mph 1008.5mb 47f 44f
9:30 11 14 mph 1008.5mb 47f 44f
9:24 11 14 mph 1008.6mb 47f 44f
9:18 11 15 mph 1008.6mb 47f 44f
9:12 13 15 mph 1008.6mb 48f 45f
9:06 10 15 mph 1008.6mb 48f 45f
9:00 14 17 mph 1008.6mb 48f 45f
8:54 13 14 mph 1008.7mb 48f 45f
8:48 13 15 mph - - -
8:42 10 15 mph 1008.7mb 48f 45f
8:36 11 15 mph 1008.7mb 48f 46f
8:30 10 15 mph 1008.8mb 48f 46f
8:24 10 16 mph 1008.8mb 48f 46f
8:18 11 17 mph - - -
8:12 11 14 mph 1008.7mb 48f 46f
8:06 10 13 mph 1008.8mb 48f 46f
8:00 11 14 mph 1008.7mb 48f 46f
7:54 11 13 mph 1008.8mb 48f 46f
7:48 10 11 mph - - -
7:42 9 10 mph 1008.9mb 48f 47f
7:36 7 10 mph 1008.9mb 48f 47f
7:30 8 10 mph 1009mb 48f 47f
7:24 7 8 mph 1009.1mb 48f 47f
7:18 7
mph
1009.1mb 48f 47f
7:12 6 7 mph 1009.1mb 48f 47f
7:06 6 8 mph 1009.1mb 48f 47f
7:00 6 8 mph 1009mb 48f 47f
6:54 6 7 mph 1009.1mb 48f 47f
6:48 6 8 mph 1009.1mb - -
6:30 7 11 mph 1009.2mb 48f 47f
6:24 7 10 mph 1009.1mb 48f 47f
6:18 8 9 mph 1009.1mb - -
6:12 7 8 mph 1009.1mb 48f 48f
6:06 8 10 mph 1009.1mb 48f 48f
6:00 8 10 mph 1009mb 48f 48f
5:54 8 11 mph 1009mb 48f 48f
5:48 8 10 mph 1009mb 48f 48f
4:54 13 16 mph 1009mb 48f 48f
4:48 14 18 mph 1008.9mb 48f 48f
4:12 9 10 mph 1008.6mb 48f 48f
4:06 10 11 mph 1008.5mb 48f 48f
4:00 9 13 mph 1008.5mb 48f 48f
3:54 7 10 mph 1008.5mb 48f 48f
3:48 9 13 mph 1008.5mb 48f 49f
3:42 8 14 mph 1008.6mb 48f 49f
3:36 9 17 mph 1008.6mb 48f 49f
3:30 11 15 mph 1008.5mb 48f 49f
3:24 8 15 mph 1008.5mb 48f 50f
3:18 10 15 mph 1008.5mb 48f 50f
3:12 8 14 mph 1008.5mb 48f 50f
3:06 9 14 mph 1008.4mb 48f 50f
3:00 10 15 mph 1008.4mb 48f 50f
2:54 8 16 mph 1008.4mb 48f 50f
2:48 8 18 mph 1008.4mb 48f 50f
2:42 7 16 mph 1008.3mb 48f 50f
2:36 10 15 mph 1008.3mb 48f 50f
2:30 10 14 mph 1008.2mb 48f 50f
2:24 11 16 mph 1008.2mb 48f 50f